Terug naar catalogus

STARLINK-32560

ActiefCommunicatieVLEO
NORAD 61982·PAYLOAD·🇺🇸 United States

Gelanceerd Nov 14, 2024 vanaf Cape Canaveral Space Force Station

Loading…

Volgende Passages (komende 24 uur)

TLE

VersSource: CelesTrak SupGP

Epoch: Sep 14, 2026, 20:46 UTC

1 61982C 24210Z   26257.86576389  .00014008  00000+0  50742-3 0  2579
2 61982  43.0013 191.2064 0001228 257.8233 146.0274 15.27569227    16

Volg STARLINK-32560 in realtime met AllMySat

Download on the App Store